Regional Weather Roundup
Issued by NWS Sterling, VA

Home | Current Version | Previous Version | Text Only | Print | Product List | Glossary On
Versions: 1 2 3 4 5 6 7 8 9 10 11 12 13 14 15 16 17 18 19 20 21 22 23 24 25 26 27 28 29 30 31 32 33 34 35 36 37 38 39 40 41 42 43 44 45 46 47 48 49 50
000
ASUS41 KLWX 301510
RWRLWX

REGIONAL WEATHER ROUNDUP
NATIONAL WEATHER SERVICE BALTIMORE MD/WASHINGTON DC
1100 AM EDT TUE SEP 30 2014

Note: "FAIR" indicates few or no clouds below 12,000 feet
with no significant weather and/or obstructions to visibility.
 TC=TEMPERATURE CELSIUS

 * =Non NWS site. Station does not report precipitation (e.g. rain,
    snow, etc.), thunder, or fog.

DCZ001-MDZ009-015-VAZ040>042-051-053>054-301600-
WASHINGTON METRO

CITY           SKY/WX    TMP DP  RH WIND       PRES   REMARKS
WASHINGTON NAT CLOUDY    70  61  73 S6        29.94S
DULLES         CLOUDY    64  61  90 CALM      29.94F
ANDREWS AFB    CLOUDY    65  64  99 SW2       29.94S
QUANTICO       CLOUDY    66  62  87 S3        29.95S
COLLEGE PARK*  CLOUDY    70  63  78 CALM      29.94S
LEESBURG*      CLOUDY    66  64  94 S6        29.95S
MANASSAS*      CLOUDY    64  64 100 CALM      29.95R
GAITHERSBURG*  CLOUDY    66  61  82 SE5       29.98S

$$

MDZ006>007-011-014-301600-
BALTIMORE METRO

CITY           SKY/WX    TMP DP  RH WIND       PRES   REMARKS
BWI AIRPORT    PTSUNNY   68  61  78 S5        29.93S
MD SCIENCE CTR   N/A     70  61  73 MISG      29.93F
MARTIN STATE   PTSUNNY   72  66  83 S3        29.94F
ANNAPOLIS        N/A     70  63  78 E5        29.93S
FORT MEADE*    CLOUDY    64  61  88 CALM      29.96S

$$

MDZ012-015-019>023-301600-
MARYLAND EASTERN SHORE

CITY           SKY/WX    TMP DP  RH WIND       PRES   REMARKS
OCEAN CITY     MOSUNNY   72  60  66 NE8       29.93F
SALISBURY      SUNNY     73  61  65 VRB3      29.93F
BAY BRIDGE AP*   N/A     68  63  83 W5        29.93F
CAMBRIDGE*     MOSUNNY   72  61  68 E3        29.92F
EASTON*        MOSUNNY   73  64  73 SE3       29.96F

$$

MDZ017>025-301600-
SOUTHERN MARYLAND

CITY           SKY/WX    TMP DP  RH WIND       PRES   REMARKS
PATUXENT RIVER PTSUNNY   69  63  81 CALM      29.93S
ST INIGOES     CLOUDY    69  61  75 NW5       29.93S
LEONARDTOWN*   CLOUDY    64  59  82 CALM      29.95S

$$

MDZ003>005-301600-
NORTH CENTRAL MARYLAND

CITY           SKY/WX    TMP DP  RH WIND       PRES   REMARKS
FREDERICK*     CLOUDY    70  64  83 CALM      29.97
HAGERSTOWN APT PTSUNNY   66  60  81 S6        29.93F
WESTMINSTER*   CLOUDY    70  63  78 SE3       29.95S

$$

MDZ501>502-301600-
WESTERN MARYLAND

CITY           SKY/WX    TMP DP  RH WIND       PRES   REMARKS
OAKLAND*       SUNNY     64  59  82 SW7       29.98F
CUMBERLAND*    NOT AVBL

$$

VAZ025>031-301600-
SHENANDOAH VALLEY

CITY           SKY/WX    TMP DP  RH WIND       PRES   REMARKS
WINCHESTER*    SUNNY     72  59  64 S3        29.93S
STAUNTON*      SUNNY     69  60  74 CALM      29.96F

$$

WVZ021-048>050-054>055-301600-
EASTERN WEST VIRGINIA PANHANDLE

CITY           SKY/WX    TMP DP  RH WIND       PRES   REMARKS
MARTINSBURG    SUNNY     68  58  70 NE3       29.93F
PETERSBURG*    SUNNY    N/A N/A N/A CALM      29.93F

$$

VAZ036>039-050-301600-
CENTRAL FOOTHILLS

CITY           SKY/WX    TMP DP  RH WIND       PRES   REMARKS
CHARLOTTESVILL CLOUDY    64  62  93 NE3       29.94S FOG
ORANGE*        CLOUDY    64  61  88 CALM      29.95F

$$

VAZ055>057-301600-
NORTH AND CENTRAL PIEDMONT

CITY           SKY/WX    TMP DP  RH WIND       PRES   REMARKS
FREDERICKSBRG* CLOUDY    67  64  91 NE3       29.93S
STAFFORD*      CLOUDY    66  66 100 CALM      29.98S

$$

NCZ024-NYZ072-PAZ021-071-VAZ022-071-301600-
OTHER REGIONAL OBSERVATIONS

CITY           SKY/WX    TMP DP  RH WIND       PRES   REMARKS
NEW YORK CITY  CLOUDY    69  57  65 VRB3      29.98F
PHILADELPHIA   MOSUNNY   74  56  53 E5        29.94F
PITTSBURGH     MOSUNNY   69  57  65 W10       29.92R
ROANOKE        MOSUNNY   68  59  73 SW5       29.97F
RICHMOND       CLOUDY    67  61  81 CALM      29.93S
RALEIGH        CLOUDY    66  61  84 CALM      29.95S HAZE

$$

ANZ530>537-301600-
MARINE OBSERVATIONS

STATION/POSITION TIME  TEMP    WIND        PRES
                       AIR SEA DIR/SP/G
                 (UTC) (F)     (DEG/KT/KT) (MB)
THOMAS PT LIGHT  1500   67 71  230/  4/  5 1014.5F
BALT KEY BRIDGE  1500   69     350/  1/  2 1013.4S
COVE POINT       1500   67     100/  2/  3 1013.5S
LEWISETTA        1500   66 71  160/  2/  3 1013.3F
SOLOMONS ISLAND  1500      72                N/A
PINEY POINT      1500          260/  3/  4   N/A

$$




USA.gov is the U.S. government's official web portal to all federal, state and local government web resources and services.